Change the Weather History Date:

Friday, January 17, 2014

  Actual Average Record
Temperature  
Mean Temperature 32 °F -  
Max Temperature 48 °F 41 °F 57 °F (2009)
Min Temperature 15 °F 17 °F 3 °F (1997)
Degree Days  
Heating Degree Days 34    
Moisture  
Dew Point 13 °F    
Average Humidity 48    
Maximum Humidity 73    
Minimum Humidity 25    
Precipitation  
Precipitation 0.00 in - - ()
Sea Level Pressure  
Sea Level Pressure 30.12 in    
Wind  
Wind Speed 10 mph (West)    
Max Wind Speed 18 mph    
Max Gust Speed 22 mph    
Visibility 10 miles    
Events      
Averages and records for this station are not official NWS values.
T = Trace of Precipitation, MM = Missing Value Source: NWS Daily Summary

Daily Weather History Graph

Daily Weather History Graph

Search for Another Location

Airport or City:

Trip Planner

Search our weather history database for the weather conditions in past years. The results will help you decide how hot, cold, wet, or windy it might be!

Date:

Astronomy

Jan. 17, 2014 Rise Set
Actual Time 7:53 AM CST 5:41 PM CST
Civil Twilight 7:24 AM CST 6:10 PM CST
Nautical Twilight 6:51 AM CST 6:43 PM CST
Astronomical Twilight 6:19 AM CST 7:15 PM CST
Moon 7:28 PM CST (1/17) 8:23 AM CST (1/17)
Length of Visible Light 10h 46m
Length of Day
9h 48m
Full, 98% of the Moon is Illuminated
Jan 17
Full
Jan 23
Last Quarter
Jan 30
New
Feb 6
First Quarter
Feb 14
Full

Hourly Weather History & Observations

Time (CST) Temp. Windchill Dew Point Humidity Pressure Visibility Wind Dir Wind Speed Gust Speed Precip Events Conditions
12:15 AM 26.6 °F 17.5 °F 8.6 °F 47% 30.22 in 10.0 mi NW 9.2 mph - N/A   Clear
12:35 AM 26.6 °F 17.5 °F 8.6 °F 47% 30.22 in 10.0 mi NW 9.2 mph - N/A   Clear
12:55 AM 26.6 °F 15.7 °F 10.4 °F 51% 30.22 in 10.0 mi NW 12.7 mph 16.1 mph N/A   Clear
1:15 AM 26.6 °F 15.2 °F 10.4 °F 51% 30.21 in 10.0 mi NW 13.8 mph 18.4 mph N/A   Clear
1:35 AM 26.6 °F 15.2 °F 10.4 °F 51% 30.21 in 10.0 mi NW 13.8 mph - N/A   Clear
1:55 AM 24.8 °F 13.4 °F 8.6 °F 50% 30.21 in 10.0 mi WNW 12.7 mph - N/A   Clear
2:15 AM 24.8 °F 14.6 °F 10.4 °F 54% 30.22 in 10.0 mi WNW 10.4 mph - N/A   Clear
2:35 AM 24.8 °F 15.3 °F 10.4 °F 54% 30.22 in 10.0 mi WNW 9.2 mph - N/A   Clear
2:55 AM 21.2 °F 10.9 °F 8.6 °F 58% 30.22 in 10.0 mi WNW 9.2 mph - N/A   Clear
3:15 AM 19.4 °F 8.6 °F 8.6 °F 63% 30.22 in 10.0 mi West 9.2 mph - N/A   Clear
3:35 AM 19.4 °F 9.5 °F 10.4 °F 68% 30.21 in 10.0 mi WNW 8.1 mph - N/A   Clear
3:55 AM 24.8 °F 14.0 °F 15.8 °F 69% 30.21 in 10.0 mi NW 11.5 mph - N/A   Clear
4:15 AM 26.6 °F 18.2 °F 14.0 °F 59% 30.21 in 10.0 mi NW 8.1 mph - N/A   Clear
4:35 AM 21.2 °F 10.1 °F 10.4 °F 63% 30.21 in 10.0 mi WSW 10.4 mph - N/A   Clear
4:55 AM 19.4 °F 9.5 °F 10.4 °F 68% 30.22 in 10.0 mi WSW 8.1 mph - N/A   Clear
5:15 AM 17.6 °F 6.4 °F 8.6 °F 68% 30.22 in 10.0 mi WSW 9.2 mph - N/A   Clear
5:35 AM 17.6 °F 6.4 °F 10.4 °F 73% 30.22 in 10.0 mi WSW 9.2 mph - N/A   Clear
5:55 AM 17.6 °F 5.7 °F 8.6 °F 68% 30.22 in 10.0 mi West 10.4 mph - N/A   Clear
6:15 AM 17.6 °F 5.7 °F 8.6 °F 68% 30.22 in 10.0 mi West 10.4 mph - N/A   Clear
6:35 AM 17.6 °F 7.3 °F 10.4 °F 73% 30.22 in 10.0 mi West 8.1 mph - N/A   Clear
6:55 AM 15.8 °F 4.2 °F 8.6 °F 73% 30.22 in 10.0 mi West 9.2 mph - N/A   Clear
7:15 AM 15.8 °F 4.2 °F 8.6 °F 73% 30.22 in 10.0 mi West 9.2 mph - N/A   Clear
7:35 AM 15.8 °F 4.2 °F 8.6 °F 73% 30.22 in 10.0 mi WSW 9.2 mph - N/A   Clear
7:55 AM 15.8 °F 6.1 °F 8.6 °F 73% 30.22 in 10.0 mi West 6.9 mph - N/A   Clear
8:15 AM 15.8 °F 7.2 °F 8.6 °F 73% 30.21 in 10.0 mi West 5.8 mph - N/A   Clear
8:35 AM 17.6 °F 7.3 °F 10.4 °F 73% 30.22 in 10.0 mi WNW 8.1 mph - N/A   Clear
8:55 AM 21.2 °F 13.6 °F 12.2 °F 68% 30.22 in 10.0 mi West 5.8 mph - N/A   Clear
9:15 AM 24.8 °F 15.3 °F 15.8 °F 69% 30.23 in 10.0 mi WNW 9.2 mph - N/A   Clear
9:35 AM 28.4 °F 17.5 °F 15.8 °F 59% 30.23 in 10.0 mi WNW 13.8 mph - N/A   Clear
9:55 AM 32.0 °F 22.5 °F 15.8 °F 51% 30.23 in 10.0 mi WNW 12.7 mph - N/A   Clear
10:15 AM 33.8 °F 22.8 °F 14.0 °F 44% 30.23 in 10.0 mi WNW 18.4 mph 21.9 mph N/A   Clear
10:35 AM 35.6 °F 26.6 °F 14.0 °F 41% 30.23 in 10.0 mi NW 13.8 mph - N/A   Clear
10:55 AM 37.4 °F 28.9 °F 14.0 °F 38% 30.22 in 10.0 mi WNW 13.8 mph - N/A   Clear
11:15 AM 37.4 °F 29.3 °F 12.2 °F 36% 30.22 in 10.0 mi WNW 12.7 mph 17.3 mph N/A   Clear
11:35 AM 39.2 °F 31.6 °F 14.0 °F 36% 30.21 in 10.0 mi WNW 12.7 mph - N/A   Clear
11:55 AM 39.2 °F 33.0 °F 12.2 °F 33% 30.20 in 10.0 mi WNW 9.2 mph - N/A   Clear
12:15 PM 41.0 °F 34.3 °F 12.2 °F 31% 30.18 in 10.0 mi WNW 11.5 mph - N/A   Clear
12:35 PM 42.8 °F 36.2 °F 12.2 °F 29% 30.16 in 10.0 mi WNW 12.7 mph 17.3 mph N/A   Clear
12:55 PM 42.8 °F 35.4 °F 12.2 °F 29% 30.15 in 10.0 mi West 15.0 mph - N/A   Clear
1:15 PM 42.8 °F 36.6 °F 12.2 °F 29% 30.13 in 10.0 mi West 11.5 mph - N/A   Clear
1:35 PM 44.6 °F 39.2 °F 12.2 °F 27% 30.11 in 10.0 mi West 10.4 mph 17.3 mph N/A   Clear
1:55 PM 46.4 °F 40.1 °F 12.2 °F 25% 30.10 in 10.0 mi WSW 15.0 mph - N/A   Clear
2:15 PM 46.4 °F 41.9 °F 14.0 °F 27% 30.09 in 10.0 mi West 9.2 mph - N/A   Clear
2:35 PM 46.4 °F 41.1 °F 15.8 °F 29% 30.08 in 10.0 mi West 11.5 mph - N/A   Clear
2:55 PM 48.2 °F - 15.8 °F 27% 30.07 in 10.0 mi West 13.8 mph 18.4 mph N/A   Clear
3:15 PM 48.2 °F - 15.8 °F 27% 30.07 in 10.0 mi West 11.5 mph 17.3 mph N/A   Clear
3:35 PM 48.2 °F - 15.8 °F 27% 30.06 in 10.0 mi West 11.5 mph 16.1 mph N/A   Clear
3:55 PM 48.2 °F - 15.8 °F 27% 30.06 in 10.0 mi West 11.5 mph - N/A   Clear
4:15 PM 48.2 °F - 15.8 °F 27% 30.05 in 10.0 mi West 9.2 mph - N/A   Clear
4:35 PM 48.2 °F - 17.6 °F 30% 30.05 in 10.0 mi West 8.1 mph - N/A   Clear
4:55 PM 46.4 °F 44.3 °F 15.8 °F 29% 30.05 in 10.0 mi SW 4.6 mph - N/A   Clear
5:15 PM 44.6 °F 42.2 °F 15.8 °F 31% 30.04 in 10.0 mi WSW 4.6 mph - N/A   Clear
5:35 PM 44.6 °F 42.2 °F 15.8 °F 31% 30.03 in 10.0 mi WSW 4.6 mph - N/A   Clear
5:55 PM 41.0 °F 37.1 °F 15.8 °F 36% 30.03 in 10.0 mi SSW 5.8 mph - N/A   Clear
6:15 PM 39.2 °F 35.0 °F 15.8 °F 39% 30.01 in 10.0 mi SSW 5.8 mph - N/A   Clear
6:35 PM 37.4 °F 32.8 °F 15.8 °F 41% 30.01 in 10.0 mi South 5.8 mph - N/A   Clear
6:55 PM 35.6 °F 29.9 °F 15.8 °F 44% 30.00 in 10.0 mi SSW 6.9 mph - N/A   Clear
7:15 PM 35.6 °F 31.7 °F 14.0 °F 41% 29.99 in 10.0 mi South 4.6 mph - N/A   Clear
7:35 PM 35.6 °F 30.7 °F 15.8 °F 44% 29.99 in 10.0 mi SSW 5.8 mph - N/A   Clear
7:55 PM 33.8 °F 29.6 °F 12.2 °F 41% 29.98 in 10.0 mi ENE 4.6 mph - N/A   Clear
8:15 PM 33.8 °F 30.8 °F 17.6 °F 52% 29.99 in 10.0 mi WSW 3.5 mph - N/A   Clear
8:35 PM 35.6 °F 31.7 °F 17.6 °F 48% 29.98 in 10.0 mi WSW 4.6 mph - N/A   Mostly Cloudy
8:55 PM 35.6 °F 29.2 °F 17.6 °F 48% 29.98 in 10.0 mi WSW 8.1 mph - N/A   Overcast
9:15 PM 35.6 °F 31.7 °F 17.6 °F 48% 29.99 in 10.0 mi West 4.6 mph - N/A   Mostly Cloudy
9:35 PM 35.6 °F - 17.6 °F 48% 29.99 in 10.0 mi Calm Calm - N/A   Mostly Cloudy
9:55 PM 35.6 °F 30.7 °F 19.4 °F 52% 29.98 in 10.0 mi SW 5.8 mph - N/A   Overcast
10:15 PM 35.6 °F 30.7 °F 17.6 °F 48% 29.97 in 10.0 mi SSW 5.8 mph - N/A   Mostly Cloudy
10:35 PM 33.8 °F 27.7 °F 17.6 °F 52% 29.97 in 10.0 mi SSW 6.9 mph - N/A   Partly Cloudy
10:55 PM 33.8 °F 29.6 °F 17.6 °F 52% 29.96 in 10.0 mi WSW 4.6 mph - N/A   Mostly Cloudy
11:15 PM 33.8 °F 27.0 °F 17.6 °F 52% 29.95 in 10.0 mi West 8.1 mph - N/A   Scattered Clouds
11:35 PM 33.8 °F 25.8 °F 15.8 °F 48% 29.94 in 10.0 mi West 10.4 mph - N/A   Clear
11:55 PM 35.6 °F 29.9 °F 17.6 °F 48% 29.93 in 10.0 mi West 6.9 mph - N/A   Clear